Asheville, NC

2:00 PM EDT on June 26, 2017 (GMT -0400)
Asheville Regional

Weather History for KAVL - May, 2009

Change the Weather History Date:

Friday, May 1, 2009

  Actual Average Record
Temperature  
Mean Temperature 68 °F 59 °F  
Max Temperature 76 °F 72 °F 87 °F (1962)
Min Temperature 59 °F 47 °F 32 °F (1996)
Degree Days  
Heating Degree Days 0 6  
Month to date heating degree days 0 6  
Since 1 July heating degree days 4137 4078  
Cooling Degree Days 3 0  
Month to date cooling degree days 3 0  
Year to date cooling degree days 7 8  
Growing Degree Days 17 (Base 50)    
Moisture  
Dew Point 55 °F    
Average Humidity 73    
Maximum Humidity 93    
Minimum Humidity 53    
Precipitation  
Precipitation 0.13 in 0.11 in 2.35 in (1897)
Month to date precipitation 0.13 0.11  
Year to date precipitation 12.01 14.70  
Snow  
Snow 0.00 in 0.00 in 0.00 in ()
Month to date snowfall 0.0 0.0  
Since 1 July snowfall 6.1 9.9  
Snow Depth 0.00 in    
Sea Level Pressure  
Sea Level Pressure 30.12 in    
Wind  
Wind Speed 6 mph (South)    
Max Wind Speed 16 mph    
Max Gust Speed 24 mph    
Visibility 8 miles    
Events Rain    
T = Trace of Precipitation, MM = Missing Value Source: NWS Daily Summary

Daily Weather History Graph

Daily Weather History Graph

Search for Another Location

Airport or City:

Trip Planner

Search our weather history database for the weather conditions in past years. The results will help you decide how hot, cold, wet, or windy it might be!

Date:

Astronomy

May. 01, 2009 Rise Set
Actual Time 6:38 AM EDT 8:16 PM EDT
Civil Twilight 6:11 AM EDT 8:43 PM EDT
Nautical Twilight 5:38 AM EDT 9:16 PM EDT
Astronomical Twilight 5:03 AM EDT 9:51 PM EDT
Moon 12:46 PM EDT (5/1) 2:12 AM EDT (5/1)
Length of Visible Light 14h 32m
Length of Day
13h 38m
Waxing Crescent, 48% of the Moon is Illuminated
May 1
Waxing Crescent
May 1
First Quarter
May 9
Full
May 17
Last Quarter
May 24
New

Hourly Weather History & Observations

Time (EDT) Temp. Dew Point Humidity Pressure Visibility Wind Dir Wind Speed Gust Speed Precip Events Conditions
12:54 AM 62.1 °F 52.0 °F 70% 30.17 in 10.0 mi Calm Calm - N/A   Clear
1:54 AM 62.1 °F 52.0 °F 70% 30.15 in 10.0 mi SE 3.5 mph - N/A   Overcast
2:54 AM 63.0 °F 52.0 °F 67% 30.12 in 10.0 mi SSE 5.8 mph - N/A   Partly Cloudy
3:54 AM 61.0 °F 51.1 °F 70% 30.11 in 10.0 mi SSE 6.9 mph - N/A   Clear
4:54 AM 61.0 °F 51.1 °F 70% 30.10 in 10.0 mi SE 5.8 mph - N/A   Clear
5:54 AM 59.0 °F 52.0 °F 78% 30.12 in 10.0 mi SE 3.5 mph - N/A   Scattered Clouds
6:54 AM 60.1 °F 51.1 °F 72% 30.12 in 10.0 mi SSE 6.9 mph - N/A   Overcast
7:54 AM 61.0 °F 52.0 °F 72% 30.13 in 10.0 mi SSE 9.2 mph - N/A   Overcast
8:54 AM 61.0 °F 55.0 °F 81% 30.14 in 10.0 mi South 12.7 mph - N/A   Overcast
9:33 AM 60.8 °F 55.4 °F 82% 30.22 in 1.8 mi Calm Calm - 0.02 in Rain Heavy Rain
9:43 AM 60.8 °F 55.4 °F 82% 30.22 in 4.0 mi North 4.6 mph - 0.06 in Rain Light Rain
9:52 AM 60.8 °F 57.2 °F 88% 30.22 in 2.0 mi Calm Calm - 0.06 in Rain Light Rain
9:54 AM 60.1 °F 57.0 °F 90% 30.18 in 2.0 mi Calm Calm - 0.06 in Rain Light Rain
10:01 AM 60.8 °F 57.2 °F 88% 30.22 in 4.0 mi Calm Calm - 0.00 in Rain Light Rain
10:25 AM 60.8 °F 57.2 °F 88% 30.22 in 4.0 mi SSE 4.6 mph - 0.03 in Rain Light Rain
10:54 AM 59.0 °F 57.9 °F 96% 30.18 in 4.0 mi South 4.6 mph - 0.05 in Rain Light Rain
11:46 AM 62.6 °F 59.0 °F 88% 30.21 in 10.0 mi Calm Calm - 0.02 in Rain Light Rain
11:54 AM 61.0 °F 57.9 °F 90% 30.16 in 10.0 mi Calm Calm - 0.02 in   Mostly Cloudy
12:13 PM 62.6 °F 59.0 °F 88% 30.19 in 10.0 mi Variable 3.5 mph - N/A   Mostly Cloudy
12:54 PM 66.0 °F 59.0 °F 78% 30.11 in 10.0 mi South 4.6 mph - N/A   Partly Cloudy
1:54 PM 70.0 °F 59.0 °F 68% 30.08 in 10.0 mi South 3.5 mph - N/A   Clear
2:54 PM 73.0 °F 57.9 °F 59% 30.06 in 10.0 mi West 4.6 mph - N/A   Scattered Clouds
3:54 PM 75.0 °F 57.0 °F 53% 30.02 in 10.0 mi South 12.7 mph 19.6 mph N/A   Partly Cloudy
4:54 PM 73.9 °F 55.0 °F 52% 30.01 in 10.0 mi South 12.7 mph - N/A   Scattered Clouds
5:54 PM 73.0 °F 55.0 °F 53% 30.02 in 10.0 mi South 12.7 mph 20.7 mph N/A   Scattered Clouds
6:54 PM 71.1 °F 55.0 °F 57% 30.02 in 10.0 mi SSW 8.1 mph - N/A   Partly Cloudy
7:54 PM 69.1 °F 55.9 °F 63% 30.02 in 10.0 mi West 4.6 mph - N/A   Clear
8:54 PM 68.0 °F 55.0 °F 63% 30.03 in 10.0 mi WSW 8.1 mph - N/A   Overcast
9:54 PM 66.9 °F 55.9 °F 68% 30.04 in 10.0 mi South 6.9 mph - N/A   Overcast
10:54 PM 64.9 °F 57.0 °F 75% 30.03 in 10.0 mi South 5.8 mph - N/A   Mostly Cloudy
11:54 PM 64.9 °F 55.9 °F 73% 30.02 in 10.0 mi SSW 9.2 mph - N/A   Overcast